Temp
16 16 15 15 14 14 14 14 14 15 14 14 14 14 14 14 13 13 13 13 13 12 12 11 11 11 11 12 12 12 12 11 11 11 11 11 11 11 11 11 11 11 11 11 11 11 10 10 11 11 11 11 11 11 11 10 10 10 10 11 11 11 11
16 16 16 15 15 14 14 14 14 15 15 14 14 14 14 14 14 14 13 13 13 12 12 11 11 11 11 11 11 12 12 12 12 11 11 11 11 11 11 11 11 11 11 11 11 10 10 11 11 11 11 11 11 11 11 11 11 11 11 11 11 11 11
16 16 16 16 16 15 15 15 15 15 15 15 14 14 14 14 14 14 14 14 13 13 12 12 12 11 11 11 11 11 11 12 12 12 11 11 11 11 11 11 11 10 10 11 11 11 10 11 11 11 11 11 11 11 11 11 11 11 11 11 11 11 11
17 16 16 16 16 16 15 15 15 15 15 15 15 15 15 14 14 14 14 14 13 13 13 12 12 12 12 12 11 11 11 11 12 12 11 11 11 11 11 11 11 11 10 10 10 10 11 10 10 10 10 11 11 11 11 11 11 11 11 11 11 11 11
17 17 16 16 16 16 15 15 15 15 15 15 15 15 14 14 14 14 14 14 13 13 13 13 12 12 12 12 12 12 11 11 11 12 12 11 11 11 11 11 11 11 11 10 10 10 11 11 11 10 10 10 11 11 11 11 11 11 11 11 11 11 11
18 17 16 16 16 16 16 15 15 15 15 15 15 15 14 14 14 14 14 14 14 13 13 13 13 12 12 12 12 12 12 11 11 11 11 11 11 11 11 11 11 11 11 11 11 11 11 11 11 11 11 11 11 11 11 11 11 11 11 11 11 11 11
18 17 17 17 16 16 16 16 15 15 15 15 15 14 14 14 14 14 14 14 14 13 13 13 13 13 12 12 12 12 12 12 11 11 11 11 11 11 11 11 11 11 11 11 11 11 11 11 11 11 11 11 11 11 11 11 11 11 11 11 11 11 11
18 17 17 17 17 16 16 16 15 15 15 15 14 14 14 14 14 14 14 14 14 13 13 13 13 13 13 12 12 12 12 12 12 11 11 11 11 11 11 11 11 11 11 11 11 11 11 11 11 11 11 11 11 11 11 11 11 11 11 10 10 10 11
18 18 17 17 17 16 16 16 16 15 15 15 15 14 14 14 14 14 14 14 14 14 14 13 13 13 13 13 12 12 12 12 12 12 12 11 11 11 11 11 11 11 11 11 11 11 11 11 11 11 11 11 11 11 11 11 11 11 11 10 10 10 10
17 17 17 17 17 16 16 16 15 15 15 15 15 15 15 14 14 14 14 14 14 14 14 13 13 13 13 13 13 12 12 12 12 12 12 12 12 12 11 11 11 11 11 11 11 11 11 11 11 11 11 11 11 11 11 11 11 11 11 11 10 10 10
16 16 16 17 16 16 16 16 15 15 15 15 15 14 15 15 14 14 14 14 14 14 14 14 13 13 13 14 13 13 13 12 12 12 12 12 12 12 12 11 11 11 11 11 11 11 11 11 11 11 11 11 11 11 11 11 11 11 11 11 11 10 10
15 14 14 15 15 15 16 16 16 15 15 15 15 14 15 15 15 14 14 14 15 15 14 14 14 13 13 13 14 13 13 13 13 13 13 13 12 12 12 12 12 11 11 11 11 11 11 11 12 12 12 12 12 11 11 11 11 11 11 11 11 11 10
14 14 14 14 14 14 14 14 15 15 15 15 15 15 15 15 15 15 15 15 15 15 15 14 14 14 14 14 14 14 14 13 13 13 13 13 13 12 12 12 12 12 12 12 11 12 12 12 12 12 12 12 12 12 11 11 12 11 11 11 11 11 10
13 13 13 13 13 13 13 13 13 13 14 14 14 14 15 15 15 15 15 15 15 15 15 14 14 14 14 14 14 14 14 14 14 14 13 13 13 13 13 12 12 12 12 12 12 12 12 12 12 12 12 12 12 12 12 11 12 12 12 11 11 11 11
12 12 13 13 13 13 13 13 13 13 13 13 13 13 13 14 14 14 14 14 14 14 15 14 14 14 14 14 14 14 14 14 14 14 14 13 13 13 13 13 13 12 12 12 12 12 12 12 12 12 12 12 12 12 12 12 12 12 12 12 11 11 11
10 11 12 12 13 13 13 13 13 13 13 13 13 12 12 12 13 13 14 14 14 14 14 14 14 14 14 14 14 14 14 14 14 14 14 14 14 13 13 13 13 13 13 12 12 12 12 12 12 12 12 12 12 12 12 12 12 12 12 12 11 11 11
9 9 10 11 12 12 13 13 13 13 13 13 13 13 12 12 12 13 13 13 13 13 14 14 14 14 14 14 15 15 14 14 14 14 14 14 14 14 14 13 13 13 13 13 13 12 12 12 12 12 12 12 12 12 12 12 12 12 12 12 11 11 11
8 8 9 10 11 11 12 12 12 12 13 13 13 13 13 13 13 13 12 12 13 13 13 14 14 14 14 14 14 15 15 14 14 14 14 14 14 14 14 14 14 13 13 13 13 13 12 12 12 12 12 12 12 12 12 12 13 12 12 12 12 11 11
8 8 8 9 10 10 11 11 11 12 12 12 13 13 13 13 13 13 13 12 12 13 13 14 14 14 14 14 14 15 15 15 14 14 14 14 14 14 14 14 14 14 14 13 13 13 13 13 12 12 12 13 13 13 12 12 12 12 12 12 12 12 12
8 8 8 8 9 9 10 10 11 11 11 12 12 13 13 13 13 13 13 12 11 12 12 13 13 14 14 14 14 14 15 15 15 15 14 14 14 14 14 14 14 14 14 14 13 13 13 13 13 13 13 13 13 13 13 12 12 12 12 12 12 12 12
8 8 8 8 8 9 9 9 9 10 10 11 12 12 12 13 13 13 13 13 12 12 12 12 13 13 13 14 14 14 14 14 15 15 15 14 14 14 14 14 14 14 14 14 14 14 13 13 13 13 13 13 13 13 13 13 12 12 12 12 12 12 12
8 8 8 8 8 9 9 9 9 9 10 10 11 11 11 12 13 13 13 13 13 13 12 12 13 13 13 13 14 14 14 14 14 14 14 14 14 14 14 14 14 14 14 14 14 14 14 13 13 13 13 13 13 13 13 13 13 12 12 12 12 12 12
8 8 8 8 8 8 9 9 9 9 9 10 10 11 11 11 12 13 13 13 13 13 13 13 13 13 13 13 14 14 14 14 14 14 14 14 14 14 14 14 14 14 14 14 14 14 14 14 13 13 13 13 13 13 13 13 13 13 12 12 12 12 12
8 8 8 8 8 8 8 9 9 9 9 9 10 10 11 11 12 12 13 13 13 13 13 13 13 13 13 14 14 14 14 14 15 15 14 14 14 14 14 14 14 14 14 14 14 14 14 14 14 13 13 13 13 13 13 13 13 13 13 12 12 12 12
7 8 8 8 8 8 8 8 9 9 9 9 10 10 10 11 12 12 12 13 13 13 13 13 13 13 14 14 14 14 13 14 14 15 15 14 14 14 14 14 14 14 14 14 14 14 14 14 14 14 13 13 13 13 13 13 13 13 13 13 12 12 12
7 7 8 8 8 8 9 9 9 9 9 10 10 10 10 11 11 12 13 13 13 13 13 13 13 13 14 15 15 14 14 14 14 15 15 15 15 14 14 14 14 14 14 14 14 14 14 14 14 14 14 13 13 13 13 13 13 13 13 13 13 12 12
7 7 8 8 8 8 8 8 8 9 9 10 10 10 10 10 11 12 12 13 13 13 13 13 13 13 13 14 15 15 15 15 15 15 15 15 15 14 14 14 14 14 14 14 14 14 14 14 14 14 14 14 13 13 13 13 13 13 13 13 13 13 12
6 7 7 7 8 8 8 8 8 8 9 9 10 10 10 10 11 11 12 12 13 13 13 13 13 13 13 13 14 15 15 16 16 15 15 15 15 14 14 14 14 14 13 13 13 13 14 14 14 14 14 14 14 14 14 13 13 13 13 13 13 13 13
6 6 7 7 7 8 8 8 8 8 9 9 10 10 11 11 11 11 11 12 12 12 13 13 13 13 13 13 14 14 14 15 15 15 15 15 15 15 14 14 14 14 13 13 13 13 13 13 14 14 14 14 14 14 14 14 13 13 13 13 13 13 13
6 6 7 7 7 8 8 8 8 8 8 9 10 10 11 11 11 11 11 11 12 12 12 13 13 13 14 14 14 13 14 14 15 15 16 15 15 15 15 15 14 14 14 13 13 13 13 14 14 14 14 14 14 14 14 14 13 13 13 13 13 13 13
6 6 7 7 7 8 8 8 8 8 8 9 9 10 10 11 11 11 12 12 12 12 12 13 13 14 14 14 14 14 14 14 14 14 15 16 16 15 15 15 15 14 14 14 13 13 13 14 14 14 14 14 14 14 14 14 13 13 13 13 13 13 13
5 6 6 7 7 8 8 8 8 8 9 9 9 10 10 11 11 11 12 12 12 12 13 13 13 13 13 14 14 14 14 14 14 14 14 15 16 16 16 16 15 14 14 14 14 14 14 14 14 14 14 14 14 14 14 13 13 13 13 13 13 13 13
5 6 6 7 7 7 8 8 9 9 9 9 9 10 10 10 11 11 12 12 12 13 13 13 13 14 14 14 14 14 14 14 14 14 14 14 15 16 16 15 15 14 14 14 14 14 14 14 14 14 14 14 14 14 14 13 13 13 13 13 13 13 13
4 5 6 6 7 7 8 8 9 9 9 9 9 10 10 10 11 11 12 12 13 13 13 14 14 14 14 14 14 14 14 14 14 14 14 14 14 14 15 15 15 15 15 15 15 15 14 14 14 14 14 14 14 14 14 14 14 13 13 13 13 13 13
4 4 5 6 6 7 7 8 8 9 9 9 9 9 10 10 11 11 12 12 13 13 13 14 14 14 14 15 15 15 14 14 14 14 14 14 14 14 14 14 14 15 15 15 14 14 14 13 14 14 14 14 14 14 14 14 14 14 13 13 13 13 13
3 4 5 5 6 7 7 8 8 9 9 9 9 9 10 10 11 12 12 12 12 13 13 14 14 14 14 15 15 15 15 14 14 14 14 13 13 13 13 14 14 14 14 14 14 13 13 13 14 14 14 14 14 14 14 14 14 13 13 13 12 12 12
3 4 4 5 5 6 7 8 8 9 9 9 9 9 9 10 11 12 12 12 13 13 13 14 14 14 14 15 15 15 15 15 14 14 14 14 14 13 13 13 14 14 14 14 14 14 14 14 14 14 14 14 14 14 14 14 14 13 13 13 13 12 12
3 3 4 4 5 6 6 7 8 8 9 9 9 9 9 10 11 11 12 13 13 13 13 13 14 14 14 15 15 15 15 15 15 14 13 13 13 13 14 15 15 15 15 15 15 15 15 14 14 14 14 14 14 14 14 14 14 14 13 13 13 13 12
Height
3154 3155 3156 3157 3159 3160 3161 3163 3165 3167 3169 3170 3173 3176 3178 3180 3182 3184 3187 3189 3192 3193 3195 3196 3198 3200 3202 3204 3207 3209 3211 3213 3215 3216 3218 3219 3221 3223 3225 3227 3228 3230 3231 3233 3234 3235 3236 3236 3237 3237 3238 3239 3239 3240 3241 3241 3242 3243 3244 3244 3245 3246 3246
3151 3153 3154 3155 3156 3158 3159 3161 3163 3165 3167 3168 3170 3173 3176 3178 3180 3182 3185 3187 3190 3192 3193 3195 3196 3198 3200 3203 3205 3207 3209 3211 3213 3215 3216 3218 3220 3222 3224 3225 3227 3229 3230 3232 3233 3234 3234 3235 3236 3237 3237 3238 3239 3239 3240 3240 3241 3242 3243 3244 3245 3245 3246
3148 3150 3151 3153 3154 3155 3157 3159 3160 3162 3164 3166 3168 3170 3173 3176 3178 3181 3183 3185 3188 3190 3191 3193 3195 3196 3199 3201 3203 3205 3207 3209 3211 3213 3215 3216 3218 3220 3222 3224 3226 3227 3229 3230 3231 3232 3234 3235 3236 3236 3237 3237 3238 3239 3239 3240 3241 3241 3242 3243 3244 3245 3245
3145 3147 3149 3150 3152 3154 3155 3157 3158 3160 3162 3164 3166 3169 3172 3174 3177 3179 3182 3184 3186 3187 3189 3191 3193 3195 3197 3199 3201 3203 3205 3207 3209 3212 3214 3215 3217 3219 3221 3222 3224 3226 3227 3229 3230 3231 3232 3234 3235 3235 3236 3237 3237 3238 3239 3239 3240 3240 3241 3242 3243 3244 3245
3143 3144 3147 3148 3150 3152 3154 3155 3157 3159 3161 3163 3165 3167 3170 3173 3175 3178 3180 3182 3184 3186 3188 3190 3191 3193 3195 3196 3199 3201 3204 3206 3208 3210 3212 3214 3215 3217 3218 3220 3222 3224 3226 3227 3229 3230 3231 3232 3233 3234 3235 3236 3236 3237 3238 3238 3239 3240 3240 3241 3242 3243 3244
3140 3142 3144 3146 3148 3150 3152 3153 3155 3157 3159 3161 3163 3166 3168 3171 3173 3176 3178 3180 3182 3184 3186 3188 3189 3191 3193 3194 3197 3199 3202 3204 3206 3208 3210 3212 3214 3215 3216 3218 3220 3222 3224 3226 3227 3229 3230 3231 3232 3233 3234 3235 3235 3236 3237 3237 3238 3239 3239 3240 3241 3242 3243
3138 3140 3142 3143 3145 3148 3150 3152 3153 3155 3158 3160 3162 3164 3166 3169 3171 3174 3176 3178 3180 3182 3184 3185 3187 3189 3191 3193 3195 3197 3199 3201 3204 3206 3208 3210 3212 3213 3215 3217 3218 3220 3222 3224 3225 3227 3228 3229 3230 3232 3232 3233 3234 3235 3235 3236 3237 3237 3238 3239 3240 3241 3241
3136 3138 3140 3141 3144 3147 3149 3150 3152 3154 3156 3158 3160 3162 3164 3166 3169 3172 3174 3176 3178 3180 3181 3183 3185 3187 3189 3191 3193 3194 3197 3199 3202 3204 3206 3208 3210 3211 3213 3215 3216 3218 3220 3221 3223 3225 3226 3227 3229 3230 3231 3231 3232 3233 3234 3234 3235 3236 3237 3238 3239 3239 3240
3134 3137 3139 3140 3142 3146 3148 3149 3150 3153 3155 3157 3158 3160 3162 3165 3167 3169 3172 3174 3176 3177 3179 3181 3183 3185 3187 3189 3191 3193 3195 3197 3199 3202 3204 3206 3207 3209 3211 3213 3215 3216 3217 3219 3221 3223 3224 3225 3227 3228 3229 3230 3230 3231 3232 3233 3234 3234 3235 3236 3237 3238 3239
3132 3136 3139 3140 3142 3145 3147 3148 3150 3152 3153 3155 3157 3159 3161 3163 3165 3167 3169 3172 3174 3176 3178 3180 3182 3183 3185 3187 3189 3191 3193 3194 3196 3199 3201 3203 3205 3207 3209 3211 3213 3214 3216 3217 3219 3220 3222 3223 3225 3226 3227 3227 3228 3229 3230 3231 3232 3232 3233 3234 3235 3236 3237
3130 3134 3137 3139 3142 3145 3146 3147 3149 3151 3152 3154 3155 3157 3159 3161 3163 3165 3167 3169 3172 3174 3176 3178 3180 3181 3183 3185 3187 3189 3191 3192 3193 3195 3198 3200 3203 3205 3207 3209 3211 3212 3214 3215 3216 3218 3219 3221 3222 3223 3224 3225 3226 3227 3228 3229 3230 3231 3232 3233 3234 3235 3236
3126 3129 3132 3135 3138 3141 3144 3146 3148 3150 3151 3153 3154 3156 3158 3160 3162 3163 3165 3168 3170 3172 3175 3176 3178 3179 3181 3182 3184 3187 3189 3190 3191 3192 3194 3197 3200 3203 3205 3207 3208 3210 3211 3213 3214 3216 3217 3218 3219 3221 3222 3223 3225 3226 3226 3227 3228 3229 3230 3231 3232 3232 3233
3122 3125 3127 3130 3134 3137 3140 3143 3146 3149 3151 3152 3153 3155 3156 3158 3160 3162 3164 3166 3168 3170 3172 3174 3176 3177 3179 3180 3182 3184 3186 3188 3189 3191 3192 3194 3197 3201 3203 3205 3206 3207 3209 3210 3212 3213 3215 3216 3217 3218 3219 3221 3222 3223 3224 3225 3226 3227 3228 3228 3229 3230 3231
3119 3122 3124 3128 3131 3133 3136 3138 3141 3144 3147 3150 3152 3154 3155 3157 3159 3161 3163 3165 3166 3168 3170 3172 3174 3175 3177 3178 3179 3181 3183 3185 3187 3189 3191 3192 3194 3197 3200 3202 3203 3204 3206 3208 3209 3210 3212 3213 3215 3216 3217 3218 3220 3221 3222 3223 3223 3224 3225 3226 3227 3227 3228
3118 3120 3123 3126 3129 3131 3133 3135 3138 3140 3142 3144 3147 3150 3152 3155 3157 3159 3161 3163 3164 3166 3168 3170 3172 3173 3174 3175 3177 3179 3181 3183 3185 3187 3189 3190 3192 3194 3196 3198 3200 3202 3203 3204 3206 3207 3209 3211 3213 3214 3215 3216 3217 3218 3219 3219 3220 3221 3222 3223 3224 3225 3226
3118 3119 3121 3124 3126 3128 3130 3133 3135 3136 3137 3139 3142 3144 3147 3149 3152 3154 3157 3160 3161 3163 3165 3167 3169 3171 3172 3173 3175 3177 3179 3180 3182 3184 3186 3187 3189 3191 3193 3195 3197 3199 3200 3201 3203 3204 3206 3208 3210 3211 3212 3213 3214 3215 3216 3216 3217 3219 3220 3221 3222 3223 3223
3118 3119 3120 3121 3123 3125 3127 3130 3131 3133 3134 3136 3138 3140 3142 3144 3146 3149 3152 3155 3158 3159 3161 3163 3166 3168 3169 3171 3173 3174 3176 3177 3179 3181 3182 3184 3186 3188 3190 3192 3194 3195 3197 3198 3200 3201 3203 3205 3206 3208 3209 3211 3212 3213 3213 3214 3215 3217 3218 3219 3220 3220 3221
3118 3119 3119 3120 3121 3122 3125 3127 3129 3130 3131 3133 3134 3137 3139 3141 3143 3144 3147 3150 3154 3156 3158 3160 3163 3165 3167 3169 3170 3171 3173 3174 3176 3178 3179 3181 3183 3185 3187 3189 3190 3192 3193 3195 3196 3198 3200 3201 3203 3205 3206 3208 3209 3210 3210 3211 3213 3214 3216 3216 3217 3218 3218
3119 3119 3118 3119 3119 3120 3121 3124 3125 3126 3128 3129 3131 3133 3135 3137 3139 3140 3142 3145 3148 3152 3155 3157 3160 3162 3164 3166 3168 3169 3171 3173 3174 3175 3177 3178 3180 3182 3184 3185 3187 3188 3190 3192 3194 3195 3197 3198 3200 3202 3203 3205 3206 3207 3208 3209 3210 3212 3213 3214 3215 3215 3215
3119 3118 3118 3118 3118 3118 3118 3119 3121 3123 3124 3126 3127 3129 3131 3133 3135 3137 3141 3144 3146 3148 3151 3154 3156 3159 3162 3164 3166 3168 3170 3171 3172 3174 3175 3176 3177 3179 3180 3182 3183 3185 3187 3189 3191 3192 3193 3195 3197 3199 3200 3202 3203 3205 3206 3207 3208 3209 3211 3212 3212 3213 3213
3117 3116 3116 3116 3117 3117 3117 3116 3117 3118 3120 3122 3122 3124 3127 3130 3132 3135 3140 3144 3146 3145 3147 3150 3153 3156 3159 3162 3164 3165 3167 3168 3170 3172 3173 3174 3175 3175 3177 3179 3181 3183 3184 3186 3187 3188 3190 3192 3194 3196 3197 3199 3201 3202 3203 3205 3206 3207 3208 3209 3210 3210 3210
3115 3114 3113 3113 3114 3115 3115 3115 3115 3116 3117 3118 3118 3119 3122 3126 3130 3134 3138 3142 3144 3144 3145 3147 3150 3153 3156 3158 3160 3162 3163 3165 3167 3169 3171 3172 3172 3173 3174 3176 3178 3180 3182 3183 3184 3185 3187 3188 3190 3192 3194 3196 3197 3199 3200 3202 3204 3205 3206 3207 3208 3208 3208
3113 3111 3110 3111 3112 3113 3114 3114 3114 3115 3117 3118 3118 3118 3119 3123 3128 3132 3135 3138 3141 3142 3143 3144 3147 3150 3153 3154 3156 3158 3159 3161 3163 3165 3167 3169 3170 3170 3171 3173 3175 3177 3179 3180 3181 3183 3184 3185 3187 3189 3191 3193 3194 3195 3197 3199 3201 3202 3204 3205 3205 3205 3205
3111 3110 3110 3110 3111 3112 3113 3114 3114 3114 3115 3117 3118 3118 3119 3122 3128 3130 3132 3133 3136 3138 3140 3142 3144 3147 3149 3151 3152 3154 3155 3156 3158 3160 3163 3165 3166 3168 3169 3170 3172 3174 3176 3177 3179 3180 3181 3183 3185 3186 3188 3190 3191 3192 3194 3196 3198 3200 3201 3202 3203 3203 3203
3109 3110 3110 3110 3110 3111 3112 3113 3113 3113 3113 3114 3116 3117 3118 3121 3125 3128 3129 3130 3132 3133 3136 3139 3141 3144 3146 3147 3148 3149 3150 3151 3153 3155 3158 3160 3162 3164 3166 3168 3169 3171 3173 3174 3176 3177 3179 3180 3182 3183 3185 3187 3188 3190 3191 3193 3195 3197 3198 3199 3200 3200 3200
3106 3108 3109 3109 3109 3110 3111 3111 3112 3112 3112 3113 3113 3114 3116 3118 3120 3123 3125 3128 3129 3130 3132 3135 3137 3139 3141 3142 3143 3144 3145 3146 3147 3149 3153 3156 3158 3161 3163 3164 3165 3167 3169 3171 3173 3174 3176 3177 3179 3180 3182 3184 3185 3187 3188 3190 3191 3193 3195 3196 3197 3197 3198
3103 3104 3107 3108 3108 3108 3108 3109 3110 3111 3111 3111 3111 3112 3114 3115 3117 3119 3121 3124 3126 3127 3129 3131 3133 3135 3136 3138 3139 3141 3142 3143 3143 3144 3148 3151 3154 3156 3158 3160 3162 3163 3165 3168 3170 3171 3173 3174 3175 3177 3179 3181 3182 3183 3185 3186 3188 3189 3191 3192 3193 3194 3194
3100 3101 3103 3105 3106 3106 3105 3107 3108 3109 3110 3110 3109 3110 3112 3114 3116 3117 3118 3121 3123 3124 3125 3126 3128 3130 3132 3134 3136 3138 3139 3140 3140 3141 3144 3146 3149 3152 3154 3156 3158 3160 3162 3164 3166 3168 3169 3171 3172 3174 3175 3177 3178 3179 3181 3182 3184 3185 3186 3188 3189 3189 3190
3097 3098 3099 3101 3102 3103 3103 3105 3106 3107 3108 3108 3107 3107 3109 3111 3114 3115 3117 3118 3120 3120 3121 3122 3124 3126 3128 3130 3132 3134 3135 3136 3138 3139 3140 3142 3144 3147 3149 3152 3154 3156 3158 3160 3162 3164 3166 3168 3169 3170 3171 3173 3174 3175 3176 3178 3179 3181 3182 3183 3184 3185 3186
3092 3094 3095 3096 3097 3098 3099 3101 3103 3104 3104 3105 3105 3104 3106 3108 3111 3113 3115 3116 3116 3117 3117 3119 3120 3122 3123 3125 3127 3129 3131 3132 3134 3135 3137 3138 3140 3142 3144 3147 3149 3151 3154 3156 3158 3160 3162 3164 3165 3166 3167 3169 3170 3171 3173 3174 3176 3177 3178 3179 3180 3181 3182
3087 3088 3089 3091 3092 3093 3094 3096 3098 3099 3100 3101 3101 3101 3102 3104 3107 3109 3111 3112 3112 3113 3114 3115 3116 3117 3119 3121 3122 3124 3126 3128 3129 3131 3133 3135 3136 3137 3140 3142 3145 3147 3150 3152 3154 3156 3158 3160 3161 3162 3164 3165 3167 3168 3170 3171 3173 3174 3175 3176 3177 3177 3178
3081 3083 3084 3085 3087 3089 3090 3092 3092 3093 3094 3096 3097 3098 3099 3101 3103 3105 3106 3107 3107 3109 3110 3110 3111 3112 3114 3116 3117 3119 3121 3123 3124 3126 3129 3131 3132 3134 3136 3138 3140 3142 3145 3148 3150 3152 3154 3156 3157 3159 3160 3162 3163 3165 3167 3168 3170 3171 3171 3173 3173 3174 3174
3076 3078 3080 3081 3082 3084 3086 3087 3088 3088 3089 3090 3093 3095 3096 3097 3099 3100 3102 3102 3102 3104 3105 3106 3107 3108 3110 3111 3113 3114 3116 3117 3119 3122 3124 3126 3128 3130 3132 3134 3136 3138 3141 3143 3146 3148 3150 3151 3153 3155 3157 3158 3160 3162 3164 3165 3166 3167 3168 3169 3170 3170 3171
3072 3074 3076 3076 3078 3079 3080 3081 3083 3084 3085 3087 3088 3090 3092 3093 3095 3096 3097 3097 3097 3098 3100 3101 3103 3104 3106 3107 3108 3110 3112 3114 3115 3117 3119 3121 3123 3126 3128 3130 3132 3134 3137 3139 3142 3143 3145 3147 3149 3151 3153 3155 3157 3159 3161 3162 3162 3163 3165 3166 3167 3167 3168
3068 3070 3071 3072 3073 3074 3075 3076 3078 3080 3082 3083 3084 3086 3087 3088 3090 3091 3092 3093 3093 3094 3095 3097 3099 3100 3102 3103 3104 3105 3108 3110 3112 3113 3115 3117 3119 3121 3124 3126 3128 3131 3133 3135 3137 3139 3141 3143 3145 3147 3149 3151 3154 3156 3158 3158 3159 3161 3163 3164 3165 3165 3166
3062 3065 3066 3068 3069 3070 3071 3072 3073 3075 3077 3079 3080 3081 3082 3083 3084 3086 3087 3088 3089 3089 3091 3093 3095 3097 3099 3100 3101 3102 3103 3105 3107 3109 3111 3113 3116 3118 3120 3122 3124 3126 3129 3131 3132 3134 3136 3138 3139 3142 3144 3146 3149 3152 3154 3155 3156 3158 3160 3161 3162 3162 3163
3057 3060 3062 3063 3064 3066 3067 3068 3069 3070 3072 3073 3075 3076 3077 3078 3078 3079 3081 3083 3084 3085 3087 3089 3091 3093 3095 3096 3096 3097 3099 3101 3103 3105 3108 3110 3112 3114 3116 3117 3120 3123 3125 3127 3129 3130 3131 3132 3134 3137 3139 3141 3144 3148 3149 3151 3152 3154 3155 3157 3158 3160 3161
3052 3054 3057 3058 3059 3061 3062 3063 3064 3065 3066 3068 3070 3071 3072 3072 3073 3074 3075 3078 3079 3081 3083 3085 3087 3088 3090 3091 3092 3093 3094 3096 3098 3100 3103 3105 3108 3110 3112 3114 3116 3119 3122 3124 3125 3127 3128 3129 3130 3132 3134 3136 3139 3142 3144 3146 3148 3149 3151 3153 3155 3156 3158
Wind_Speed
28 31 30 30 33 35 33 32 31 30 30 30 29 28 28 28 29 31 30 28 27 28 29 29 28 27 25 24 24 23 23 23 23 24 25 26 25 24 23 22 21 19 18 17 15 15 15 15 15 14 14 14 13 12 11 10 9 9 9 9 10 10 9
30 32 32 31 33 34 33 33 33 31 30 29 29 28 28 29 30 31 30 29 27 28 29 29 29 27 25 25 24 24 24 23 23 24 25 26 26 25 23 22 21 20 19 18 17 17 17 16 16 15 15 14 13 13 12 12 11 10 10 10 10 10 10
29 32 33 31 30 30 31 32 33 32 30 29 29 28 28 28 29 30 30 29 28 28 29 29 29 27 26 25 25 25 24 24 23 24 25 25 24 23 24 24 22 22 21 20 19 19 18 17 17 16 15 15 14 14 13 13 12 12 11 11 11 11 11
26 30 31 31 30 29 30 32 32 31 30 29 28 27 26 27 27 28 30 30 29 30 30 29 29 28 27 26 26 26 25 24 24 23 24 24 23 22 24 25 25 24 23 22 22 21 20 19 18 17 17 16 15 15 14 14 14 13 12 12 12 12 12
25 29 32 33 33 32 31 32 31 30 30 29 28 26 25 26 26 28 29 30 31 31 29 29 29 28 28 27 26 26 25 25 24 23 23 24 24 23 23 25 26 26 25 24 24 23 23 21 20 19 18 17 16 16 16 15 15 15 14 13 13 13 13
23 27 33 34 34 33 30 29 29 28 27 27 26 26 25 25 26 26 27 30 31 31 30 30 30 29 29 28 26 26 25 26 26 25 24 24 25 26 24 23 24 26 26 26 25 25 24 24 22 21 20 19 18 17 17 16 16 16 15 14 14 14 14
23 23 28 33 35 32 28 28 28 27 27 25 25 25 25 26 26 25 26 28 31 32 32 32 31 30 30 29 28 26 26 27 27 26 25 24 25 26 25 24 23 24 25 26 26 26 25 25 23 22 22 21 20 19 18 18 17 17 16 15 15 15 15
23 21 24 29 33 32 28 27 27 26 26 26 26 27 26 25 26 26 26 27 30 33 33 33 31 30 30 30 29 28 27 26 27 27 27 26 26 26 26 26 25 24 24 25 25 26 26 25 24 23 23 23 22 22 21 20 19 19 18 17 16 16 16
24 20 20 25 29 30 26 25 26 26 26 26 26 26 26 25 25 26 26 26 29 34 34 33 32 30 29 30 30 29 28 27 27 27 28 28 28 27 26 26 26 26 26 25 24 25 25 25 25 24 24 24 24 24 24 23 22 21 20 19 18 17 17
28 20 18 21 25 27 25 24 27 28 27 27 27 26 25 25 24 25 26 26 28 33 34 33 32 32 31 30 30 30 30 30 29 28 29 29 28 28 27 26 26 27 27 26 26 26 25 25 25 25 25 25 24 24 25 25 24 24 23 21 20 19 18
32 26 23 22 23 25 25 25 27 28 27 27 27 27 26 25 25 25 26 26 27 30 32 33 33 34 33 31 30 31 31 31 30 30 29 29 29 28 27 27 27 28 28 28 27 27 27 26 26 26 26 26 25 25 25 25 25 25 24 23 22 21 20
34 34 34 33 32 33 31 27 25 24 24 25 27 26 26 25 25 26 26 26 26 28 30 32 33 34 34 32 31 31 31 31 31 30 29 29 28 28 28 28 28 29 29 29 29 28 28 28 28 27 26 26 26 26 26 25 25 26 25 25 24 24 23
36 37 39 39 40 42 41 36 32 27 24 24 25 24 23 24 25 25 25 25 26 27 28 30 32 34 34 33 32 32 32 31 31 30 29 29 28 28 28 28 29 29 29 29 30 30 30 30 29 28 26 25 25 27 27 27 26 26 26 26 26 26 26
35 38 40 40 41 43 44 43 39 36 33 31 29 26 24 23 23 24 24 25 25 26 26 28 31 33 34 34 33 32 31 31 30 30 29 29 29 29 29 29 29 29 30 30 31 31 31 30 30 29 28 26 25 26 27 28 29 28 27 28 28 28 28
31 36 39 40 42 44 45 44 41 40 40 39 38 37 34 30 28 27 26 26 26 26 26 27 29 32 33 34 33 31 30 30 30 31 31 30 30 30 29 29 29 29 30 31 31 31 31 31 31 30 30 28 27 26 27 29 31 30 29 29 29 30 29
22 29 36 40 43 45 46 44 42 41 42 41 41 42 42 41 39 35 33 30 29 29 28 27 28 31 33 34 32 31 31 31 31 32 32 32 31 31 30 30 30 30 30 31 31 31 31 31 31 31 31 30 28 27 28 30 31 30 30 29 30 30 30
16 19 29 36 41 45 48 47 45 44 44 43 43 43 44 44 44 42 39 36 34 33 32 30 29 30 33 34 33 33 32 32 32 32 32 31 30 31 31 31 31 31 31 31 31 31 31 31 32 32 31 31 30 29 29 29 29 29 29 29 29 31 31
13 13 17 27 36 41 45 48 47 47 47 46 44 44 44 44 43 43 42 40 37 36 34 32 30 30 32 34 34 34 33 32 32 31 31 30 29 29 30 31 32 32 32 32 31 30 30 31 31 32 31 31 30 30 30 29 28 28 27 28 29 30 31
5 6 10 16 27 35 41 45 46 47 49 48 47 45 45 45 44 44 43 42 40 37 35 32 30 29 32 34 35 34 32 31 32 32 31 29 28 28 29 31 32 32 32 31 31 31 31 31 31 31 31 31 30 30 29 29 28 27 27 27 28 29 30
16 10 3 7 11 19 27 34 40 45 47 48 49 48 45 45 45 44 41 38 37 37 36 34 33 31 32 35 36 34 33 32 32 32 31 30 30 29 29 30 30 30 30 30 31 31 31 31 31 31 31 30 29 29 29 29 28 27 27 26 27 28 29
22 17 8 0 1 2 5 9 18 31 40 44 48 50 48 45 44 43 39 35 34 35 35 35 34 32 32 33 34 34 34 33 33 33 33 32 32 31 30 30 29 28 28 29 30 30 30 30 31 31 31 30 29 28 28 28 27 27 26 26 26 27 28
25 21 16 10 6 2 3 5 3 8 21 29 36 45 48 47 44 42 38 36 35 34 34 34 33 31 30 31 33 34 36 35 35 35 35 34 34 34 32 31 29 29 29 29 29 29 30 30 31 31 31 30 30 29 28 27 27 27 27 26 26 26 28
25 27 24 20 16 10 2 3 5 4 4 12 23 36 43 44 43 41 38 36 35 34 33 33 32 30 29 30 31 33 36 37 36 36 37 37 36 35 33 32 31 30 31 30 30 29 29 29 29 30 30 30 30 30 28 26 26 27 27 26 26 27 28
24 28 30 28 25 20 12 6 1 3 4 3 12 26 34 37 38 39 39 38 36 34 34 34 32 30 29 30 31 31 34 37 38 38 38 39 38 36 35 33 33 32 32 32 31 30 29 29 28 29 29 30 30 30 28 27 26 27 27 27 27 27 28
25 25 29 31 31 28 22 16 10 5 4 4 4 12 24 32 36 38 38 38 38 36 35 34 34 32 30 30 30 31 33 37 40 40 40 40 40 39 37 35 34 34 34 34 33 32 31 30 30 29 29 29 29 29 29 28 27 27 27 27 28 29 29
30 27 29 31 32 31 29 23 16 10 8 6 5 5 13 25 35 40 39 38 39 38 36 35 35 35 35 32 30 30 33 37 42 43 42 42 42 41 40 39 37 36 35 35 35 34 33 32 31 30 30 29 29 29 29 29 28 28 28 28 29 30 30
33 33 31 31 31 31 32 30 25 18 13 9 8 6 8 17 28 38 40 39 39 38 38 38 38 39 39 37 34 34 36 41 45 46 44 43 42 42 41 41 40 39 37 36 36 36 35 34 33 32 31 30 29 29 28 28 28 28 28 28 29 30 31
34 35 35 33 31 32 33 34 32 28 22 16 12 9 10 14 20 29 35 38 38 40 40 40 41 42 42 41 40 39 41 45 49 48 45 43 42 41 41 41 41 40 38 38 38 38 36 36 35 34 32 31 31 30 28 27 28 29 29 29 30 31 32
37 37 37 37 35 35 35 35 36 34 29 23 18 13 11 14 18 23 30 35 37 40 40 40 41 42 42 42 43 42 43 45 49 49 46 43 42 41 40 40 40 39 37 37 38 39 39 37 36 35 34 32 32 31 30 28 28 29 30 30 31 31 31
41 40 41 40 39 40 39 37 37 38 34 27 23 19 15 14 17 21 26 31 35 38 40 40 40 41 42 43 43 43 42 43 45 47 46 44 43 42 41 40 39 38 36 36 36 38 40 39 38 37 35 33 32 32 32 30 29 29 30 31 32 32 31
41 42 43 42 42 43 43 41 40 40 38 33 28 25 21 18 18 20 23 28 32 36 39 40 42 44 44 44 44 44 43 43 45 46 46 45 45 44 42 41 40 38 37 35 35 37 39 41 40 39 38 36 34 32 32 31 31 30 30 30 31 32 31
38 40 42 43 43 44 45 45 43 41 42 39 34 30 26 23 22 22 23 26 30 34 37 40 43 45 46 46 46 45 44 44 45 46 46 45 45 45 43 42 40 39 38 37 36 37 38 41 42 41 40 39 36 33 32 32 31 31 30 30 31 32 32
34 37 39 41 42 43 44 45 43 42 43 43 39 35 32 28 25 24 25 27 30 34 36 39 41 44 45 46 47 47 45 44 45 46 46 45 44 44 44 43 41 40 39 38 38 38 38 40 42 42 41 39 38 35 33 31 32 32 31 31 31 32 32
30 32 35 37 39 40 41 43 43 42 44 45 44 40 36 31 29 27 26 28 31 34 37 39 41 43 44 45 47 48 48 46 45 45 46 45 45 45 45 44 43 41 40 39 39 39 39 39 40 42 42 40 38 36 33 31 31 32 32 31 31 31 32
29 29 31 33 35 37 38 40 42 43 44 45 45 43 39 34 32 30 29 28 31 34 37 40 41 42 43 44 46 48 47 46 45 45 45 46 46 46 45 44 42 41 41 40 40 40 39 38 38 41 42 41 38 34 31 29 27 28 28 29 28 28 30
30 28 28 29 31 33 35 37 39 42 43 44 44 43 40 36 35 34 31 29 31 35 38 39 41 42 43 44 45 45 45 46 45 44 44 44 45 46 44 42 41 41 40 39 38 38 37 37 38 39 41 41 38 33 28 24 21 21 24 25 24 24 25
31 28 26 26 29 31 33 35 36 39 41 42 42 43 41 38 37 36 34 31 31 34 37 39 40 41 42 44 45 44 44 44 45 45 44 43 43 43 42 39 38 39 38 37 36 36 36 38 38 38 40 40 37 33 28 22 19 20 23 23 23 23 23
33 29 25 25 27 29 31 33 34 36 38 41 43 44 42 40 40 39 37 34 32 34 37 39 40 41 42 43 44 45 44 44 44 44 44 43 42 42 41 40 39 38 36 35 35 36 38 39 38 38 39 39 37 35 31 25 22 21 22 23 23 24 24
Wind_Direction
233 224 223 223 220 219 222 223 224 225 224 222 220 218 216 213 210 211 215 214 210 210 211 212 212 213 213 214 216 218 217 214 211 211 213 215 216 213 210 212 214 214 211 207 204 205 206 205 204 201 198 197 196 195 194 191 187 178 173 171 167 164 165
238 228 223 222 220 220 222 223 224 226 226 224 220 219 217 215 211 211 214 214 210 209 211 213 213 214 213 214 216 219 219 217 214 211 213 216 217 215 212 212 214 216 215 211 207 208 211 209 207 206 204 203 203 201 198 197 194 188 183 180 176 173 172
237 231 226 223 221 220 220 221 223 226 227 225 222 221 219 216 212 211 214 215 212 209 210 212 214 214 214 214 216 219 221 220 217 213 213 217 219 217 213 212 212 213 215 215 212 211 213 212 210 210 209 207 208 207 204 201 199 195 189 186 184 181 180
234 229 227 226 223 221 220 219 222 225 227 226 226 225 222 219 215 213 214 215 215 212 210 210 211 212 213 213 214 218 221 223 221 217 214 217 221 220 216 213 212 213 214 215 215 215 215 214 213 213 213 211 210 210 209 206 203 201 196 191 189 189 187
234 228 226 226 223 220 219 219 221 224 226 225 225 227 227 223 219 216 214 215 216 215 213 211 211 212 212 212 213 215 219 224 225 221 217 216 219 221 219 215 215 215 215 215 216 217 217 217 216 216 216 216 214 212 212 209 207 205 201 197 193 193 193
228 226 224 224 224 221 218 218 220 222 224 224 224 225 227 225 222 218 214 214 214 214 213 212 211 211 212 212 211 212 215 221 225 226 222 218 219 221 221 218 217 218 218 219 219 219 219 219 218 218 218 219 218 216 214 212 210 207 205 202 198 196 195
223 224 222 222 222 220 217 218 220 221 222 224 226 225 226 226 223 217 213 213 212 212 211 211 209 210 212 212 212 211 212 216 222 226 226 223 221 222 222 220 219 219 219 221 222 222 222 221 220 220 220 220 222 221 219 216 214 211 208 205 203 200 198
229 227 224 222 221 219 217 217 219 220 221 222 224 224 225 225 222 218 214 211 210 211 211 211 209 209 211 212 212 211 212 214 219 223 227 226 224 222 222 221 221 220 221 221 222 222 223 225 224 223 222 222 223 224 223 220 217 216 213 209 207 206 204
232 232 225 222 221 217 215 217 217 218 219 220 221 222 223 223 221 220 218 214 211 210 211 211 211 210 211 213 213 212 212 214 217 221 225 227 227 224 222 222 221 222 223 223 223 223 223 224 226 227 226 225 223 224 225 224 221 219 217 214 212 211 211
226 229 226 224 222 216 213 216 217 218 219 220 221 221 222 223 222 222 223 220 214 211 210 210 210 211 212 213 214 213 213 213 215 219 223 226 227 226 224 222 222 222 223 224 225 225 225 224 225 227 229 228 225 224 224 224 223 221 219 218 217 215 215
218 221 225 224 220 215 215 217 217 218 219 221 223 223 224 224 224 224 225 223 217 212 210 209 210 212 214 215 215 215 215 214 213 216 221 225 227 227 226 224 223 223 223 223 224 226 227 227 226 226 227 228 228 227 226 225 224 223 222 221 220 220 220
212 217 221 222 218 217 218 219 217 217 219 222 225 226 227 226 225 225 227 226 222 216 211 210 210 212 215 216 216 217 218 217 216 216 218 222 226 228 227 226 226 225 224 224 225 226 227 229 230 229 227 225 226 229 229 228 226 225 224 224 223 222 222
207 214 218 219 219 219 220 222 222 220 221 222 224 226 227 227 227 228 229 229 228 223 216 212 212 213 215 217 218 219 219 220 221 219 218 220 223 226 227 228 228 227 227 227 227 227 228 229 232 233 231 226 223 224 228 230 230 227 225 225 224 223 223
204 211 217 218 218 219 220 222 223 223 224 224 225 226 226 227 228 231 233 232 231 229 223 216 214 214 215 217 220 221 220 221 223 223 222 221 222 223 225 227 228 228 228 229 230 230 230 230 232 234 235 232 226 223 224 227 230 229 226 225 225 225 225
198 207 214 216 218 220 220 220 221 222 225 226 226 226 227 228 229 231 233 233 233 234 231 223 218 217 217 219 221 221 221 221 223 224 225 224 223 223 224 225 227 228 228 229 231 232 233 234 234 234 236 236 232 227 224 225 228 229 227 226 226 227 228
179 196 207 212 215 219 220 220 221 222 223 224 225 225 226 227 227 228 230 230 231 234 235 231 225 221 220 221 221 221 221 221 222 224 225 225 225 224 225 225 226 227 228 229 231 232 234 236 236 236 236 236 235 231 227 226 226 227 228 227 227 228 230
128 164 193 204 210 215 219 220 221 223 223 223 224 224 224 225 225 226 228 228 229 231 234 234 230 226 223 223 222 221 221 221 221 223 224 225 226 226 227 227 227 228 228 229 229 231 233 235 237 237 237 236 235 233 230 228 227 227 228 228 228 229 230
82 108 160 190 202 209 214 218 221 223 223 224 224 224 224 225 226 225 226 227 228 229 233 235 234 231 226 224 223 222 220 220 221 222 223 224 225 226 227 229 229 230 229 229 229 230 231 233 236 237 238 238 236 235 233 230 229 228 227 227 228 229 231
341 45 109 166 194 202 207 213 218 222 224 224 224 225 224 225 227 227 226 227 226 227 232 236 237 234 227 223 222 221 220 220 221 222 222 222 223 224 226 228 230 231 231 231 231 231 231 232 235 237 238 239 237 235 234 233 231 229 227 226 226 228 230
272 291 37 116 176 198 201 206 211 217 222 224 225 226 225 224 226 228 229 228 226 225 229 234 237 235 228 224 224 224 222 221 221 221 221 220 220 222 224 227 229 231 232 233 232 232 232 232 234 236 239 240 239 236 234 234 234 232 229 226 226 228 230
266 271 277 360 88 167 183 199 209 210 212 217 222 225 225 223 225 228 229 228 225 223 225 229 233 233 230 228 230 231 229 227 224 223 222 221 221 221 222 224 227 229 231 233 233 233 234 233 234 236 239 241 242 239 236 235 236 236 232 228 227 228 230
270 268 266 268 286 322 83 54 31 202 207 211 214 217 220 221 222 225 229 229 229 227 226 227 229 228 228 231 233 234 234 232 228 225 225 225 223 222 222 223 225 228 230 232 234 234 235 235 235 236 238 240 242 242 238 235 235 237 236 233 230 229 231
272 268 265 266 273 280 249 94 64 78 206 222 215 214 217 219 219 222 225 228 230 230 227 227 226 226 229 231 233 234 234 233 230 227 226 228 227 225 223 223 225 228 230 233 234 235 235 236 236 237 238 239 241 242 241 236 234 235 238 238 235 233 233
270 269 268 267 267 269 271 267 233 116 111 195 221 222 222 221 221 224 225 226 227 227 226 227 228 230 232 232 231 232 233 234 233 229 226 227 227 226 225 224 225 227 230 234 236 236 237 237 238 239 239 240 241 242 242 239 235 233 235 237 238 238 237
268 265 265 266 266 265 267 267 255 224 173 139 188 228 228 224 224 225 226 228 229 226 226 229 232 234 234 231 230 232 233 234 234 230 226 225 226 227 227 226 226 228 230 234 236 238 239 240 240 240 240 241 242 242 242 241 238 235 233 233 235 238 240
266 264 259 260 263 265 264 262 256 249 235 200 169 204 226 224 225 225 225 227 229 228 228 231 235 237 235 231 229 230 229 230 231 230 226 224 225 227 228 228 228 229 230 233 236 238 239 240 241 241 241 242 243 243 244 243 241 238 235 234 233 235 238
264 264 262 260 260 261 262 261 261 264 258 230 194 183 207 220 225 226 225 226 228 229 231 233 235 236 237 234 228 222 219 223 228 227 225 224 225 227 229 230 230 230 231 233 236 237 239 240 241 242 242 242 243 244 245 244 243 242 239 237 236 235 236
261 262 263 264 263 263 265 263 261 264 265 253 226 202 201 210 218 223 224 225 227 229 232 234 234 235 237 237 232 225 223 225 226 225 224 224 226 228 229 230 231 231 233 235 237 238 239 240 242 243 243 243 242 243 244 245 245 243 241 240 239 239 239
260 261 262 263 263 265 269 266 260 260 265 261 244 227 217 212 213 218 222 224 226 228 229 231 233 235 237 238 236 235 235 233 228 225 225 226 229 230 231 231 232 232 233 236 239 240 240 241 242 243 243 244 243 243 243 244 245 245 243 241 241 242 243
259 260 261 262 261 262 267 269 264 259 262 264 254 242 234 227 221 218 220 223 226 227 228 230 233 235 236 237 237 238 239 238 233 230 228 229 231 233 233 232 233 234 234 236 239 241 241 241 242 243 244 244 244 244 244 243 244 246 246 245 244 245 245
258 259 260 261 261 262 264 267 267 260 257 261 262 253 245 246 241 229 221 223 226 228 230 232 234 235 236 237 238 238 239 239 238 236 234 231 232 233 234 235 237 238 238 238 239 240 240 241 241 243 245 246 247 247 247 245 245 246 249 249 248 248 247
256 257 258 259 261 262 261 264 267 262 255 258 262 259 253 254 254 244 231 225 226 228 231 233 235 237 237 238 239 240 240 239 239 239 238 236 234 234 235 237 240 242 242 242 242 240 240 240 241 243 245 247 248 250 250 248 246 246 248 249 248 247 247
255 254 255 257 259 261 261 262 263 261 256 257 260 260 258 258 257 253 243 233 228 227 230 233 237 239 240 241 242 242 242 242 241 240 241 240 238 237 238 240 242 244 244 244 243 241 240 240 241 242 244 246 248 250 252 252 249 247 247 248 247 245 244
254 251 252 254 257 259 260 261 261 260 259 259 259 258 260 260 257 254 249 241 234 230 229 233 237 240 242 243 244 244 243 243 243 243 243 243 242 241 241 241 242 243 243 243 244 245 245 244 243 242 243 245 247 250 253 256 254 250 248 249 249 246 243
256 251 249 251 254 256 258 259 260 260 261 261 258 256 260 263 259 253 249 245 239 234 232 232 236 240 243 244 245 246 245 243 243 244 245 246 246 245 244 244 245 245 246 248 249 250 251 250 246 243 242 243 245 248 253 259 261 258 254 254 252 247 244
257 253 248 247 249 251 253 255 257 258 260 261 259 256 260 265 261 253 248 246 242 238 235 234 236 239 242 245 247 247 245 243 242 243 245 247 248 247 246 245 246 247 248 250 251 253 253 252 248 244 242 241 241 242 248 255 260 256 251 250 247 243 241
257 254 248 244 242 243 245 247 251 254 258 260 260 258 260 266 264 255 248 245 244 242 239 237 237 238 241 245 247 247 246 243 242 242 244 247 250 250 248 244 244 245 246 248 250 252 253 252 249 245 242 239 236 235 237 242 246 245 242 240 239 238 238
254 254 249 242 238 237 238 240 244 249 254 258 261 260 260 265 266 259 249 244 244 244 243 241 239 240 241 244 246 247 246 245 244 243 243 245 250 252 250 245 243 244 246 249 252 252 251 251 249 246 241 237 232 230 231 234 236 238 239 238 238 239 239